Theta_e
302 301 301 301 301 301 301 301 301 302 302 302 302 302 302 301 301 300 300 299 299 299 300 300 299 299 299 298 298 298 298 298 298 298 298 297 297 296 296 296 296 295 295 295 295 295 295 295 295 295 295 295 294 295 295 295 295 295 295 295 295 296 296 296 296 296 296 297 297 297 297 297 297 297 297 298 298 298 299 299 299 299 299 299 300 300
301 300 300 300 301 301 300 300 300 301 301 301 301 301 301 300 300 299 298 297 297 297 298 298 298 298 298 297 297 297 297 297 297 297 297 296 296 296 296 295 295 295 295 295 295 295 295 294 294 294 294 294 294 294 294 294 294 294 294 294 294 294 294 294 294 294 294 295 295 295 295 295 296 296 296 297 297 298 298 298 298 299 299 299 299 299
299 299 298 299 300 300 300 299 299 299 300 300 300 300 300 299 298 298 297 296 295 296 296 297 297 297 297 297 296 296 296 296 296 296 296 295 295 295 295 295 295 295 295 295 294 294 294 294 294 293 293 293 293 293 293 293 293 292 293 293 293 293 293 293 293 293 293 293 293 294 294 294 295 295 296 296 296 297 297 297 298 298 298 298 298 299
298 298 298 298 299 299 300 299 299 298 298 299 299 299 299 298 297 296 296 295 294 295 295 296 296 296 296 296 295 295 295 295 295 295 295 295 295 295 295 295 295 295 295 294 294 294 294 293 293 293 293 292 292 292 292 291 291 291 291 291 291 291 291 291 291 292 292 292 292 292 293 293 294 294 295 295 295 296 296 296 297 297 297 297 298 298
297 297 298 298 298 298 299 299 298 297 297 297 297 297 297 296 295 295 295 294 294 294 295 295 295 295 295 295 294 294 294 294 294 294 294 294 294 294 294 294 294 294 294 294 294 293 293 293 292 292 292 292 291 291 291 290 290 290 289 289 289 289 289 289 289 290 290 290 291 291 292 292 293 293 293 294 294 295 295 295 296 296 296 297 297 297
297 297 297 297 297 297 297 297 297 296 296 296 296 296 295 295 294 294 294 293 294 294 294 294 294 294 294 294 293 293 293 293 293 293 293 294 294 294 294 294 294 294 294 293 293 292 292 292 292 291 291 290 290 290 290 290 290 290 289 289 289 289 289 288 288 288 288 288 289 289 290 290 291 292 292 293 293 294 294 294 295 295 295 296 296 296
297 297 297 297 297 297 297 296 296 295 296 295 295 294 294 294 294 294 293 293 293 293 294 294 294 294 293 293 292 292 292 291 291 292 292 293 293 293 293 293 293 293 293 292 292 292 291 291 291 290 290 290 290 290 290 290 290 290 290 290 289 289 289 288 288 287 287 287 287 287 288 289 289 290 291 291 292 293 293 293 294 294 295 295 295 295
296 296 296 296 296 296 296 296 295 295 295 295 294 294 294 294 293 293 293 293 293 293 293 294 293 293 293 292 291 291 290 290 290 290 290 291 292 292 292 292 292 292 291 291 291 291 290 290 290 290 290 289 289 290 290 290 290 290 289 289 289 289 288 288 287 287 286 286 286 287 287 288 288 289 289 290 291 291 292 292 293 293 294 294 294 295
296 296 296 296 296 296 295 295 294 294 294 294 294 293 293 293 293 293 293 293 293 293 293 293 293 293 292 292 291 290 289 289 288 288 288 289 290 290 291 291 291 291 290 290 290 290 289 289 289 289 289 289 289 289 289 289 289 289 289 289 288 288 288 287 287 286 285 286 286 286 287 287 288 288 288 289 289 290 291 291 292 292 293 293 293 294
297 296 296 296 296 296 295 294 294 294 293 293 293 293 293 293 293 293 293 293 293 293 293 293 293 292 292 291 290 289 289 289 288 288 288 288 288 288 289 289 289 289 289 289 289 289 289 289 289 289 288 288 288 288 287 287 287 287 288 287 287 287 287 286 286 285 285 286 287 287 287 287 288 288 288 288 289 289 289 290 290 291 291 292 292 293
296 296 295 295 295 295 295 294 294 294 293 293 293 293 293 293 293 293 293 293 293 293 293 293 292 292 291 290 290 289 289 289 288 288 288 287 287 287 287 287 287 288 288 287 287 288 288 288 288 288 288 287 287 287 286 286 286 286 286 286 286 286 286 286 285 286 286 287 288 288 288 288 288 288 288 288 288 288 288 289 289 290 290 290 291 291
295 295 295 295 295 295 295 294 294 294 293 293 293 293 293 293 293 293 293 293 293 293 293 292 292 291 291 290 289 289 289 288 288 288 288 287 287 287 287 287 287 287 287 287 287 287 287 287 287 287 287 287 286 286 286 285 285 285 285 285 285 285 285 286 286 286 287 287 288 288 289 289 289 289 289 289 289 288 288 288 288 289 289 289 290 290
295 295 295 294 294 294 294 294 294 293 293 293 293 293 293 293 293 293 292 293 292 292 292 292 291 291 290 290 289 289 288 288 288 288 288 287 287 287 287 287 287 287 287 286 286 286 286 286 286 286 286 286 286 285 285 284 284 284 284 284 284 285 286 286 287 287 287 287 288 288 288 289 289 289 289 289 289 289 289 289 289 289 289 289 289 290
294 294 294 294 294 294 294 294 293 293 292 292 293 293 293 293 293 292 292 292 292 291 291 291 291 290 289 289 288 288 288 288 287 287 287 287 287 287 287 287 287 287 287 286 286 286 285 285 285 285 285 285 285 285 284 284 283 283 284 285 286 286 287 287 287 287 287 287 288 288 288 289 289 289 289 289 289 289 289 289 289 289 289 289 289 290
293 294 293 293 293 293 293 293 293 293 293 293 293 293 293 293 293 292 292 291 291 290 290 290 290 289 288 288 288 288 288 287 287 287 287 287 287 287 287 287 287 287 286 286 285 285 284 284 284 284 284 284 284 284 284 284 284 285 286 287 287 287 287 287 287 287 287 288 288 288 288 288 288 289 289 289 289 289 289 289 289 289 289 289 290 290
294 294 293 293 293 293 293 293 293 293 293 293 293 293 292 293 293 293 292 291 290 289 289 289 288 288 288 288 288 288 287 287 287 287 287 287 287 287 287 287 286 286 286 285 285 284 284 284 284 284 284 284 284 284 284 285 286 286 287 287 287 287 287 288 288 287 287 287 287 288 288 288 288 288 289 289 289 289 289 289 288 288 289 289 289 290
294 294 294 293 293 293 293 293 293 293 293 293 292 292 292 292 293 293 292 291 290 289 288 288 288 288 288 288 287 288 287 287 287 287 287 287 287 287 286 286 286 285 285 284 284 284 283 284 284 284 284 284 284 284 285 286 286 287 287 287 287 287 287 287 287 287 287 287 287 287 288 288 288 288 288 288 288 288 288 288 288 288 288 289 289 290
294 294 294 293 293 293 293 293 293 293 293 293 292 292 292 292 292 292 292 291 290 289 289 288 289 289 288 287 287 287 287 287 287 287 287 287 286 286 286 285 285 285 284 284 284 283 284 284 284 284 284 283 283 284 286 286 287 287 287 287 287 287 287 287 287 287 286 286 287 287 287 288 288 288 288 288 288 288 288 288 288 288 288 288 289 289
294 294 294 294 294 293 293 293 293 293 293 293 293 292 291 291 291 291 291 290 290 289 289 288 288 288 287 287 287 287 286 286 286 286 286 286 286 286 285 285 285 284 284 284 284 284 284 284 284 284 284 283 283 284 285 286 286 287 287 287 287 287 287 287 286 286 286 286 287 287 288 288 288 288 288 288 288 288 288 288 288 288 288 288 288 289
295 295 295 295 295 294 293 293 293 294 293 293 293 292 291 290 290 290 290 289 289 289 289 288 288 287 287 286 286 286 286 285 285 285 285 285 285 285 284 284 284 284 284 283 283 283 284 284 283 283 283 283 283 284 284 285 286 286 287 287 287 287 287 286 286 286 286 286 287 287 288 287 287 288 288 288 288 288 288 288 288 288 288 288 288 288
296 296 296 296 295 295 294 294 294 294 293 293 292 291 290 290 289 289 289 289 289 288 288 288 287 287 286 286 286 285 285 285 285 285 284 284 284 284 284 284 284 284 284 283 283 283 283 283 283 283 283 283 283 283 284 284 285 286 286 287 287 287 286 285 285 285 286 287 287 287 287 287 287 287 287 287 287 288 288 288 288 288 289 289 288 288
296 296 296 295 295 295 295 294 294 293 292 291 291 290 290 290 289 289 289 289 288 288 287 287 287 286 286 285 285 285 285 285 284 284 284 284 285 285 284 284 284 284 284 284 283 283 283 283 283 283 283 283 283 283 283 284 284 285 286 287 286 286 285 285 285 286 286 286 287 287 287 287 287 287 287 287 287 287 287 288 288 288 288 289 289 289
295 295 295 294 294 294 293 293 293 292 291 290 290 290 289 289 289 289 288 288 288 287 287 286 286 286 285 285 285 285 284 284 284 284 284 285 285 285 285 284 284 284 284 284 284 283 283 283 283 283 283 283 283 283 283 283 284 286 287 286 286 285 285 285 285 286 286 286 287 287 287 287 287 287 287 287 287 287 287 287 288 288 288 288 289 289
293 294 294 293 293 292 292 292 291 291 290 289 289 289 288 288 288 288 287 287 287 286 286 286 286 285 285 285 284 284 284 284 284 284 284 285 285 285 285 285 284 284 284 284 284 284 284 283 283 283 283 283 283 283 283 284 285 286 286 286 285 285 286 286 286 286 286 287 287 287 287 287 287 287 287 287 287 287 287 287 287 287 287 288 288 288
292 292 292 291 291 290 290 290 290 290 289 289 288 288 288 287 287 287 286 286 286 286 286 285 285 285 284 284 284 284 284 284 284 284 284 284 284 284 284 284 284 284 284 284 284 284 284 283 283 283 283 283 283 283 283 284 285 286 286 285 285 286 286 286 286 286 286 287 287 286 287 287 287 287 287 287 287 287 287 287 287 287 287 287 287 287
290 290 290 290 290 289 289 289 289 289 288 288 288 288 287 287 287 287 286 286 286 286 286 285 285 284 284 284 284 284 284 284 284 284 284 284 284 284 284 284 284 284 284 284 284 284 284 283 283 283 283 283 283 283 284 285 286 286 286 286 286 286 286 286 286 286 286 286 286 286 286 286 286 286 286 286 286 286 286 286 287 287 287 287 287 287
289 289 289 288 288 288 288 288 288 288 288 288 287 287 287 287 287 287 286 286 286 286 285 284 284 284 284 283 284 284 284 284 284 284 284 283 284 284 284 284 284 284 284 284 284 283 283 283 283 283 283 283 283 284 284 285 285 286 285 285 285 285 285 285 285 285 286 286 286 286 286 286 286 286 286 286 286 286 286 286 286 286 286 286 286 287
288 288 288 288 288 288 288 287 287 287 287 287 287 287 287 287 287 286 286 286 285 285 284 284 284 284 284 284 283 283 283 283 283 283 283 283 283 284 284 284 283 283 283 283 283 283 283 283 283 283 284 284 284 284 284 285 285 285 285 285 284 284 284 284 284 285 285 285 286 286 286 286 286 286 286 286 286 286 286 286 286 286 286 286 286 286
288 288 288 288 288 288 287 287 287 287 287 287 287 286 286 286 286 286 285 285 285 284 284 284 284 284 284 283 283 283 283 283 283 283 283 283 283 283 283 283 283 283 283 283 283 283 283 283 284 284 284 284 284 284 284 285 285 285 285 284 284 283 283 283 283 284 284 285 285 285 285 286 285 285 285 285 285 285 285 285 285 286 286 286 286 286
288 288 288 288 288 288 288 288 287 287 287 287 287 286 286 286 286 285 285 285 285 284 284 284 284 284 284 283 283 282 282 282 282 282 282 282 283 283 283 283 283 283 283 283 283 283 283 283 284 284 284 284 284 284 284 284 284 284 284 283 283 283 282 283 283 283 284 284 284 285 285 285 285 285 285 284 284 284 284 284 285 285 285 285 285 285
288 288 288 288 288 288 288 288 288 288 288 287 287 287 286 286 286 285 285 285 285 285 285 285 284 284 283 283 282 281 281 282 282 282 282 282 283 283 283 283 283 283 283 283 283 283 282 283 284 284 284 284 284 284 284 284 284 284 284 283 282 282 282 282 283 283 283 283 284 284 284 284 284 284 284 284 284 284 283 283 284 285 285 285 285 284
287 287 287 287 287 288 288 288 288 288 288 288 287 287 287 286 286 286 285 286 285 285 285 284 284 283 283 282 282 282 281 282 282 282 282 282 282 283 283 283 283 283 283 282 283 282 280 282 284 284 284 284 284 284 284 284 284 284 284 283 282 282 282 282 283 283 283 283 283 283 283 283 283 283 283 283 283 283 283 283 284 284 284 284 284 284
286 286 286 286 286 287 287 287 287 287 287 287 287 287 286 286 286 286 285 285 285 285 284 283 283 282 282 282 282 282 281 282 282 282 282 282 282 282 282 282 282 283 283 282 282 282 282 283 283 283 283 284 284 284 284 284 284 284 283 282 282 282 282 282 282 283 283 283 283 283 283 283 283 283 283 283 283 283 283 283 284 284 284 284 284 284
286 286 286 286 286 286 286 286 286 286 286 286 286 286 286 286 285 285 285 284 284 284 283 283 282 282 282 281 281 281 281 281 281 281 281 281 281 281 281 282 282 282 282 282 282 282 283 283 283 283 283 283 283 283 283 283 283 283 282 282 281 281 282 282 282 282 282 282 282 282 282 282 282 282 282 282 282 282 282 283 283 284 285 285 284 284
285 285 285 285 285 285 285 285 285 285 285 285 285 285 285 285 284 284 284 283 283 283 282 282 282 282 281 281 281 281 281 281 281 280 280 280 281 281 281 281 282 282 282 282 282 282 282 282 282 282 282 282 282 282 283 283 282 282 282 281 281 281 281 281 281 281 281 281 281 282 282 282 282 282 282 282 282 282 282 283 283 284 284 284 284 284
285 285 285 285 285 285 285 285 284 284 284 284 284 284 284 283 283 283 283 282 282 282 282 282 282 281 281 281 281 281 281 281 280 280 280 280 280 281 281 281 282 282 282 282 282 282 282 282 282 282 282 282 282 282 282 282 282 281 281 281 281 281 281 280 280 281 281 281 281 282 282 282 282 282 282 282 282 282 282 283 283 283 284 284 284 284
285 285 285 285 285 284 284 284 284 283 283 283 283 283 282 282 282 282 282 282 282 282 282 282 282 281 281 281 281 281 281 281 281 281 281 280 280 280 281 281 281 281 282 282 282 282 282 282 281 281 281 281 281 281 281 281 281 281 281 281 281 281 280 280 280 281 281 281 281 281 282 282 282 282 282 282 282 282 282 282 283 283 283 283 284 284
284 284 284 284 284 283 283 283 283 282 282 282 282 282 282 282 282 282 282 282 282 282 282 281 281 281 281 281 281 281 281 281 281 281 281 281 280 280 280 281 281 281 281 281 281 281 281 281 281 281 281 281 281 281 281 281 281 281 281 280 280 280 280 280 280 281 281 281 281 281 281 281 281 281 282 282 282 282 282 282 282 282 283 283 283 283
284 284 284 283 283 283 282 282 282 282 282 282 281 281 281 281 281 281 281 281 281 281 281 281 281 281 281 281 281 281 281 281 281 281 281 281 280 280 280 281 281 281 281 281 281 281 281 281 281 281 281 281 281 281 280 280 280 280 280 280 280 280 280 280 281 281 281 281 281 281 281 281 281 281 281 282 282 282 282 282 282 282 283 283 283 283
283 283 283 283 283 282 282 282 282 282 281 281 281 281 281 281 281 281 281 281 281 281 281 281 281 281 281 281 281 280 280 280 280 280 280 280 280 280 280 280 280 280 280 280 280 280 280 280 280 280 280 280 280 280 280 280 280 280 279 279 279 280 280 281 281 281 281 281 281 281 281 281 281 281 281 281 282 282 282 282 282 283 283 283 283 283
283 283 283 283 283 283 283 282 282 282 282 282 281 281 281 281 281 281 281 281 281 281 281 281 281 281 280 280 280 280 280 280 280 280 280 280 280 280 280 280 280 280 280 280 280 280 280 280 280 280 280 279 279 279 279 279 279 279 279 279 279 280 280 281 281 281 281 281 281 281 281 281 281 281 281 281 281 282 282 282 282 282 282 283 283 283
283 283 283 283 283 283 283 283 283 283 282 282 282 282 282 282 281 281 281 281 281 281 281 281 281 281 280 280 280 280 279 279 279 279 279 279 279 280 280 280 280 280 280 280 280 280 280 280 279 279 279 279 279 279 279 279 279 279 279 279 279 280 281 281 281 281 281 281 281 281 281 281 281 281 281 281 281 282 282 282 282 282 282 283 283 283
284 284 284 284 283 283 283 283 283 283 283 283 283 283 282 282 282 282 281 281 281 281 281 281 281 281 280 280 280 279 279 279 279 279 279 279 279 279 280 280 280 280 280 280 280 280 279 279 279 279 279 279 279 279 279 279 279 279 279 280 280 279 280 281 281 281 281 281 281 281 281 281 281 281 281 281 281 282 282 282 282 282 282 283 283 283
285 285 284 284 284 284 283 283 283 283 283 283 283 283 283 282 282 282 282 282 281 281 281 281 281 280 280 280 280 279 279 279 279 279 279 279 280 280 280 280 280 280 280 280 279 279 279 279 279 279 279 279 279 279 278 278 278 279 279 280 280 279 279 280 281 281 281 281 281 281 281 280 280 280 281 281 281 282 282 282 282 282 282 283 283 283
285 285 285 285 284 284 284 284 284 284 284 283 283 283 283 283 282 282 282 282 282 282 282 281 281 280 280 279 279 279 279 279 279 279 280 280 280 280 280 280 280 280 279 279 279 279 279 279 279 280 280 280 279 279 278 278 278 279 279 280 280 280 280 280 280 280 280 281 281 281 280 280 280 280 281 281 281 282 282 282 282 282 282 282 283 283
286 286 285 285 285 285 285 284 284 284 284 284 284 284 283 283 283 282 282 282 282 282 282 281 281 280 280 280 279 279 279 279 279 279 280 280 280 280 280 280 280 280 279 279 279 279 279 279 279 279 279 279 279 279 278 278 278 279 279 279 280 280 280 280 280 280 280 280 280 281 280 280 280 280 281 281 282 282 282 282 282 282 282 282 282 283
286 286 286 286 285 285 285 285 285 284 284 284 284 284 284 283 283 283 282 282 282 282 282 282 281 281 280 280 280 280 279 279 279 279 279 279 280 280 280 280 280 280 279 279 279 279 279 280 280 280 279 279 279 279 279 279 279 279 279 279 279 279 279 280 280 280 280 280 280 280 280 280 280 281 281 281 281 282 282 282 282 282 282 282 282 282
286 286 286 286 286 285 285 285 285 285 285 285 284 284 284 284 283 283 283 282 282 282 282 282 281 281 281 281 280 280 280 279 279 279 279 279 279 279 280 280 279 279 279 279 279 279 279 280 280 280 280 279 279 279 279 279 279 279 279 279 279 279 279 280 280 280 280 280 280 280 280 280 280 280 281 281 281 282 282 283 282 282 282 282 282 282
286 286 286 286 286 286 285 285 285 285 285 285 285 284 284 284 284 283 283 282 282 282 282 282 281 281 281 281 281 280 280 280 279 279 279 279 279 279 279 279 279 279 279 279 279 279 279 279 280 280 279 279 279 279 279 279 279 279 279 279 279 279 279 280 280 281 280 280 280 280 280 280 280 280 280 280 281 282 282 283 283 283 282 282 282 282
286 286 286 286 286 286 285 285 285 285 285 285 285 285 284 284 284 283 283 283 282 282 282 282 281 281 281 281 281 281 280 280 280 279 279 279 279 279 279 279 279 279 279 279 279 279 279 279 279 279 279 279 280 280 279 279 279 279 279 279 279 279 279 280 280 281 280 280 280 280 280 281 280 280 280 280 280 281 282 283 283 283 283 282 282 282
286 286 286 286 286 286 286 285 285 285 285 285 285 284 284 284 284 283 283 282 282 282 282 282 281 281 281 281 281 281 280 280 280 279 279 279 279 279 279 279 279 279 279 279 279 279 279 279 279 280 280 280 280 280 280 280 280 279 279 279 279 279 280 280 280 281 280 280 280 280 280 281 281 281 281 280 280 280 280 281 282 283 283 282 282 282
Wind_Speed
19 20 20 20 19 18 17 16 15 14 14 13 12 11 10 10 9 9 10 11 12 13 13 12 11 10 9 8 7 7 7 8 7 7 6 6 4 2 1 0 1 2 4 5 5 5 5 5 4 4 4 3 3 3 2 2 2 2 2 3 3 3 3 3 2 2 1 1 1 1 2 2 1 1 1 1 1 1 2 1 2 3 2 1 2 2
18 19 20 19 19 18 17 16 15 14 13 12 12 11 11 10 10 10 10 11 12 13 12 11 10 10 9 8 7 6 6 6 6 6 5 4 3 2 1 1 1 2 4 4 4 4 4 4 3 2 2 1 1 0 0 0 0 0 0 1 1 1 1 1 1 1 1 1 2 2 2 2 2 2 2 2 2 1 2 2 3 4 3 3 3 3
18 20 20 19 18 18 17 16 15 14 12 12 11 11 10 10 10 10 10 10 10 11 11 10 10 10 9 9 7 6 5 4 4 4 3 2 1 1 2 2 2 3 3 4 4 4 4 3 2 1 1 1 1 2 2 2 3 3 3 3 3 3 3 3 3 3 3 3 3 4 3 3 3 3 3 3 3 2 2 3 3 4 4 4 4 3
19 20 21 20 18 17 17 16 15 13 12 11 11 10 10 9 9 9 9 9 8 9 9 9 9 9 8 7 5 4 3 3 2 2 1 2 2 2 3 3 3 4 4 4 4 4 3 2 1 1 1 1 2 3 3 4 4 4 4 5 5 5 5 5 6 6 6 6 6 6 5 5 4 4 4 4 4 3 3 4 4 4 4 4 4 4
18 20 21 20 18 17 17 16 14 13 12 11 10 9 9 9 9 9 9 9 8 8 8 8 8 7 6 5 4 3 2 2 2 2 3 3 3 3 3 4 4 4 4 4 3 3 2 2 1 0 1 2 3 4 4 4 5 5 5 5 5 6 6 7 7 7 7 8 8 8 7 6 6 5 5 5 5 4 4 4 4 4 4 4 5 5
17 18 19 18 16 16 16 15 14 13 12 10 9 9 9 10 10 10 10 9 9 8 7 7 6 5 5 4 5 5 4 3 3 4 4 4 4 4 4 4 4 4 4 4 3 3 2 1 1 1 2 3 4 4 4 5 5 5 5 5 5 6 6 7 7 8 8 8 8 8 8 8 7 7 6 6 6 5 5 4 4 4 4 4 5 5
17 18 18 17 16 16 16 15 13 12 11 10 9 10 11 11 11 10 10 10 9 8 7 6 6 5 4 4 5 5 4 4 4 4 5 5 5 5 4 4 4 4 4 3 3 2 2 1 2 2 3 3 4 4 4 4 4 4 4 4 5 6 7 7 8 8 9 9 8 8 8 8 8 8 7 7 6 6 6 5 5 4 4 4 4 5
17 17 17 16 16 16 17 16 14 12 11 10 11 12 13 12 12 11 11 10 9 8 8 7 6 5 5 5 4 4 4 4 4 4 4 5 6 6 5 5 4 4 4 3 2 2 2 2 2 3 3 3 3 3 3 3 3 4 4 5 6 7 7 8 9 9 9 9 8 7 7 7 7 7 7 7 7 7 6 6 5 5 5 5 5 5
19 18 18 18 17 17 17 16 15 13 11 10 11 12 13 13 12 12 11 11 10 9 9 8 7 7 6 5 5 5 4 4 3 3 4 4 5 6 6 6 6 5 5 3 2 2 2 2 2 2 2 2 3 3 3 4 4 5 6 7 7 8 8 9 9 9 8 7 6 6 6 6 6 6 7 7 7 7 7 7 6 5 5 5 5 5
20 20 19 19 19 18 17 16 16 15 12 11 11 11 12 13 13 13 12 12 11 11 10 9 9 8 7 7 6 5 5 4 4 3 3 4 5 5 6 6 7 7 6 5 4 3 2 2 2 3 3 4 4 5 5 6 7 7 8 8 9 9 9 9 9 8 6 5 4 4 4 4 5 5 5 6 6 7 7 7 7 6 6 5 5 5
18 18 18 18 18 18 17 17 17 16 14 12 11 11 12 12 13 13 13 13 13 12 11 10 10 9 9 8 7 6 5 5 4 4 4 4 4 5 6 6 7 7 7 7 6 5 4 4 4 5 6 6 7 7 8 9 9 9 9 9 9 8 8 8 7 6 5 4 4 4 4 4 4 4 4 5 5 6 6 6 7 7 6 6 6 5
16 17 17 17 17 17 17 17 17 17 15 14 12 11 11 12 13 13 14 14 14 13 13 12 11 10 10 9 8 7 6 6 5 5 5 5 5 6 6 6 7 7 7 7 8 7 7 7 7 8 9 9 10 10 10 10 10 9 9 8 8 7 7 6 6 5 4 4 4 3 3 3 3 3 3 3 4 4 4 5 5 6 6 6 6 5
17 17 16 16 16 16 15 16 16 17 16 15 13 12 12 13 13 13 12 14 14 14 13 13 12 11 10 9 8 8 7 7 7 6 6 6 6 6 7 7 7 7 7 8 8 8 9 9 10 10 11 11 11 11 10 10 9 8 7 7 6 6 5 5 5 5 4 4 3 3 3 3 2 2 2 2 3 3 3 3 4 4 5 5 5 5
16 16 15 14 14 15 15 16 17 17 16 15 15 14 14 15 15 13 12 13 14 13 13 12 12 12 10 10 9 8 8 8 8 8 8 8 8 8 8 8 8 8 8 8 9 9 10 10 11 11 11 11 11 10 9 8 7 5 4 4 4 4 4 4 4 4 4 4 3 3 3 2 2 2 2 2 2 2 2 2 2 3 3 3 4 4
16 16 14 13 13 14 15 17 17 17 17 16 16 15 15 15 15 14 12 13 13 13 13 12 12 11 10 10 10 9 9 9 9 9 9 9 9 9 9 8 8 9 9 9 9 10 10 10 10 10 10 9 9 8 7 5 4 3 2 2 3 3 4 4 4 4 4 4 3 3 3 2 2 2 2 2 2 2 2 2 2 2 2 2 3 3
18 17 14 14 14 15 15 17 17 17 17 16 15 14 13 14 15 14 13 13 14 14 13 11 10 9 9 10 11 11 10 10 10 10 10 10 10 10 9 8 8 9 9 9 9 9 9 9 9 8 8 7 7 6 4 3 2 2 2 3 3 4 4 4 4 4 4 4 3 3 3 3 3 3 3 3 3 3 3 3 3 3 3 2 3 3
18 16 15 15 15 15 16 17 17 16 17 16 15 13 13 14 15 14 13 13 14 14 12 10 7 5 5 7 9 11 11 10 10 11 10 10 10 10 9 8 8 8 9 8 8 7 7 7 7 6 6 5 4 3 2 2 2 2 3 3 4 4 4 4 4 4 4 4 4 3 3 4 4 4 3 3 3 3 3 3 3 3 3 3 3 3
17 16 16 16 16 16 17 17 17 17 17 16 15 13 13 13 14 14 14 13 13 13 12 10 7 4 3 3 5 8 10 9 9 10 10 10 9 9 9 8 8 8 8 7 6 5 5 5 5 5 4 4 3 2 2 2 2 3 3 3 3 3 3 4 4 5 5 4 3 3 3 4 4 4 4 3 3 3 4 4 4 4 4 4 4 4
17 17 17 16 16 17 17 18 18 17 17 16 15 14 13 13 13 14 14 13 12 12 11 10 8 5 4 3 4 7 7 7 8 9 9 9 9 9 8 8 7 6 6 4 4 4 4 4 4 4 4 3 3 3 2 2 3 3 3 3 3 3 4 5 6 6 5 3 2 2 3 3 3 3 3 3 3 3 4 4 4 4 4 4 4 5
18 18 17 17 17 17 17 18 18 17 16 15 14 14 14 13 13 13 13 13 13 12 12 11 9 8 7 6 6 6 6 6 6 7 8 8 9 8 8 7 5 5 4 3 3 3 3 4 4 4 3 3 3 3 3 3 3 3 3 3 3 3 5 6 6 6 4 2 1 1 2 2 2 3 3 3 3 3 3 3 4 4 4 4 5 5
15 16 15 14 14 15 16 16 15 14 13 13 13 13 13 13 13 13 13 12 12 12 12 10 9 8 8 7 7 6 6 6 6 6 7 7 8 8 6 5 4 4 3 2 2 3 3 3 3 3 4 4 4 4 5 4 4 3 3 3 3 4 5 6 5 4 2 1 1 1 1 2 2 2 3 3 3 3 3 3 3 4 4 4 5 5
10 11 11 11 11 11 11 11 12 12 11 11 12 12 13 13 13 12 12 12 12 11 11 9 8 7 7 7 7 7 6 6 6 6 6 5 5 6 5 4 4 3 3 2 2 3 2 3 3 4 4 5 6 6 6 5 4 3 3 3 4 5 5 4 3 2 1 1 1 1 1 2 2 2 3 3 3 3 3 3 4 4 4 4 4 5
6 8 9 9 8 8 8 9 10 10 10 10 9 9 9 9 10 10 10 9 9 9 8 8 7 7 6 6 6 6 6 6 6 6 5 4 3 3 3 3 4 3 3 2 2 2 2 3 4 5 6 7 7 7 6 5 4 3 3 4 4 4 3 3 2 2 1 0 0 1 2 2 2 3 3 3 3 4 4 4 4 5 5 5 5 5
5 6 8 8 7 7 6 8 9 9 9 9 8 7 6 6 6 6 6 6 6 7 7 6 6 6 6 6 6 6 6 6 6 6 5 4 3 3 3 3 4 4 3 3 3 3 3 4 5 6 8 8 8 7 5 5 4 4 3 4 3 2 2 2 2 2 2 1 2 2 2 2 3 3 3 3 3 4 4 4 5 5 5 5 6 6
6 6 7 7 7 7 6 7 8 9 9 9 8 8 7 7 6 6 6 7 7 6 6 6 5 5 5 5 5 5 5 5 5 5 5 4 3 4 4 4 4 4 4 4 4 5 5 5 6 8 8 8 7 5 4 4 4 4 3 3 2 1 1 2 2 2 2 2 3 3 3 3 3 3 3 3 3 3 4 4 5 5 5 6 6 6
6 7 7 7 7 7 7 7 8 8 9 9 9 9 8 8 7 7 7 7 7 7 6 5 5 5 5 4 4 4 4 5 5 5 5 4 3 4 5 5 5 5 5 5 5 5 6 6 7 8 7 6 5 3 4 5 4 4 3 3 3 2 2 2 2 2 3 3 3 3 3 3 3 3 3 3 3 3 4 4 4 5 5 6 6 6
6 7 7 7 7 7 7 8 8 9 9 9 9 8 8 8 8 8 8 8 7 7 6 5 4 4 4 3 3 4 4 4 5 5 5 5 4 4 5 5 5 5 5 6 6 6 6 7 7 6 5 4 4 6 7 7 6 5 5 4 4 4 4 3 3 3 3 3 3 3 3 3 3 3 3 3 4 4 4 4 4 5 5 5 6 7
7 7 7 7 7 7 7 7 8 8 8 8 8 7 7 7 7 7 8 7 7 6 6 5 5 4 3 2 3 4 5 5 5 6 6 5 4 4 4 5 5 5 5 6 7 7 6 6 5 4 3 3 5 7 9 9 8 7 5 4 4 5 5 5 5 4 3 3 3 3 3 3 3 4 4 4 5 5 5 5 5 5 5 6 6 7
8 8 8 8 8 8 7 7 6 6 6 6 6 6 6 6 5 6 6 6 6 5 6 5 4 3 3 3 4 5 6 6 7 7 7 6 5 4 5 5 5 5 5 6 6 5 5 4 3 3 3 4 6 8 9 9 8 7 5 5 6 7 7 7 7 6 5 4 4 3 3 4 4 5 5 6 6 6 6 6 6 5 6 6 7 8
9 9 9 9 9 9 9 9 8 8 6 4 4 4 4 4 4 4 4 4 4 5 5 4 4 3 3 3 4 4 5 5 6 7 7 6 5 4 4 4 4 4 4 4 4 3 3 3 3 3 4 6 7 8 9 9 8 7 6 6 7 9 9 9 9 8 7 7 6 6 6 6 6 6 7 7 8 8 8 7 6 6 6 7 8 8
9 9 9 9 9 10 10 10 10 10 9 7 6 5 4 4 4 3 4 4 4 4 4 4 4 4 3 3 1 1 3 2 4 5 5 5 4 3 3 3 3 4 4 3 2 2 1 1 3 4 5 6 7 8 9 9 8 7 7 8 10 11 11 10 10 10 9 9 9 9 9 9 9 9 9 10 10 10 10 9 7 6 7 7 7 7
7 8 8 8 9 9 10 10 10 11 10 9 8 6 5 4 4 4 4 4 4 4 4 4 4 4 4 4 3 2 2 1 2 3 4 4 4 3 3 3 3 4 5 4 3 2 1 1 2 4 5 7 8 8 9 9 9 9 9 11 12 12 11 10 10 10 10 10 11 11 12 12 13 13 13 12 12 12 11 9 7 6 6 7 7 7
7 7 7 8 8 9 9 10 10 10 10 9 8 7 6 5 5 5 5 5 6 5 5 5 5 5 5 5 6 5 3 2 3 3 4 4 4 4 5 5 5 5 6 6 5 5 3 3 3 4 6 7 8 9 10 10 11 11 12 13 12 11 10 9 9 9 10 11 12 13 14 14 15 15 15 14 14 12 11 9 6 5 6 6 7 7
6 6 7 7 7 7 8 9 9 10 10 10 9 8 7 7 6 6 6 7 7 7 6 6 5 5 5 6 6 6 5 4 5 6 6 6 5 5 6 6 6 6 6 6 5 5 5 5 5 5 5 7 9 10 11 12 13 13 13 13 11 9 8 8 9 10 11 13 14 14 15 15 15 15 15 14 13 12 9 7 5 5 5 6 6 7
6 6 6 6 6 6 6 7 7 8 9 9 9 9 9 9 9 8 8 8 7 7 6 6 5 5 5 6 6 6 5 4 5 6 6 6 6 6 6 6 7 7 7 6 5 4 4 6 6 6 5 6 8 11 12 12 12 12 12 11 10 9 9 9 11 12 13 14 14 14 14 14 13 13 12 12 11 10 8 6 6 5 6 6 6 6
6 6 6 6 6 6 6 6 6 7 8 8 9 9 10 10 9 9 9 8 7 7 6 6 6 6 6 6 6 6 5 4 4 5 6 6 6 6 6 6 6 7 7 6 6 5 4 5 6 7 7 6 7 9 10 10 10 10 10 10 10 11 11 12 13 14 14 14 13 13 12 11 10 10 10 10 9 9 8 8 8 7 7 7 6 6
7 7 6 6 6 6 6 7 7 7 8 8 9 9 9 9 8 8 8 7 7 7 6 6 6 6 7 7 7 7 6 5 5 6 6 6 7 7 7 6 7 7 7 7 7 7 6 6 6 8 9 9 7 6 7 9 11 11 11 12 13 13 14 14 14 13 13 13 12 11 10 9 8 8 9 9 9 9 9 9 9 9 9 9 8 7
7 7 7 6 6 6 7 7 7 7 7 7 7 7 7 7 6 6 6 6 7 7 6 7 7 7 7 7 8 7 7 7 7 8 8 8 8 8 8 8 8 9 9 9 9 9 9 8 7 7 8 9 10 10 11 12 13 14 14 15 15 16 15 14 13 13 12 12 11 10 9 8 8 9 9 9 10 10 10 10 10 10 10 10 10 9
6 6 6 5 5 5 5 5 5 5 5 5 5 5 5 5 5 5 5 6 6 6 6 7 7 7 8 8 8 9 9 9 9 9 9 9 10 10 10 10 10 10 10 10 11 11 11 10 10 9 8 9 10 12 13 13 14 15 16 18 18 17 14 13 12 12 12 11 10 9 8 8 9 9 10 10 10 10 10 10 10 10 10 10 10 10
5 5 5 5 4 4 4 4 4 4 4 4 4 4 4 4 5 5 5 5 5 6 6 6 7 7 8 9 9 10 10 11 11 11 11 11 11 11 11 11 11 11 11 11 12 12 13 13 14 14 13 11 11 12 13 14 15 16 18 18 17 16 14 13 13 12 11 10 9 8 8 8 9 9 10 10 10 10 10 10 10 10 10 10 10 10
5 4 4 4 4 4 3 3 3 3 3 4 4 4 4 4 4 5 5 5 5 6 6 7 7 8 9 10 11 11 11 12 12 12 12 12 12 12 12 12 12 12 12 12 13 13 14 15 15 16 16 16 16 17 18 18 18 17 17 17 17 18 17 15 12 10 8 7 7 7 7 8 8 9 10 10 11 11 11 11 10 10 10 10 10 9
4 4 5 4 4 4 3 3 3 3 3 3 3 4 4 4 4 5 5 5 6 6 7 7 8 9 9 10 11 11 11 11 11 12 12 12 12 12 12 12 12 12 12 13 13 14 14 15 16 17 17 17 17 17 18 19 18 17 16 17 17 17 15 11 7 5 5 5 5 6 7 7 8 9 10 10 11 11 11 11 10 10 10 9 9 8
4 4 4 4 4 4 4 4 4 3 3 3 3 3 4 4 5 5 5 6 6 7 7 8 8 9 10 10 10 10 10 10 10 10 10 11 11 11 12 12 12 12 12 13 13 14 15 15 16 16 17 16 17 18 18 18 17 17 16 16 15 13 9 7 6 6 6 7 7 7 7 8 9 10 10 11 11 11 11 11 10 10 9 9 8 8
3 3 3 4 4 5 5 4 4 4 4 4 4 4 4 5 5 6 6 7 7 7 8 8 9 10 10 10 10 9 8 8 8 8 9 9 9 10 10 10 10 11 11 12 13 14 15 15 16 16 16 15 16 17 17 16 16 16 15 15 14 13 11 11 12 12 12 11 10 9 8 9 9 10 11 11 11 11 11 11 11 10 9 9 8 8
5 4 4 4 5 5 5 5 5 5 5 5 5 5 5 5 6 7 7 8 8 8 8 8 9 8 8 9 9 9 8 7 7 6 7 7 8 8 8 9 9 9 10 12 13 13 14 15 16 16 15 14 15 16 16 15 15 15 15 14 14 14 14 15 15 14 13 12 10 8 8 8 9 10 10 10 10 10 11 11 11 10 10 9 9 8
7 7 6 6 6 6 6 6 6 7 7 7 6 6 6 6 7 7 8 8 9 9 9 9 9 9 8 9 9 9 9 8 7 6 5 5 6 7 7 8 8 9 10 11 12 13 14 15 15 14 14 14 15 16 16 15 15 15 15 14 14 14 14 15 15 14 12 10 8 7 6 7 8 9 9 9 9 10 10 11 11 10 10 9 9 9
10 10 9 8 8 8 8 8 8 8 8 8 8 7 7 7 8 8 9 9 9 10 10 10 11 11 11 10 10 10 10 9 8 7 6 6 6 6 7 7 8 9 10 10 11 12 13 14 14 13 13 13 14 14 15 16 15 15 15 15 14 14 15 16 15 13 10 8 7 6 5 6 7 8 9 9 9 10 10 10 10 10 10 10 10 10
13 12 11 11 10 10 10 10 10 10 10 9 9 8 8 8 8 9 9 9 10 10 11 11 12 12 12 12 11 11 11 11 10 9 8 7 7 7 7 8 8 9 9 10 11 12 13 13 14 14 14 15 14 14 15 15 15 15 15 14 14 14 15 16 14 11 8 6 5 5 5 6 8 9 10 10 10 10 10 10 10 10 10 10 10 10
15 14 13 13 13 13 12 12 11 11 11 10 10 9 9 9 9 10 10 10 10 10 11 12 12 12 13 13 12 11 11 11 11 10 9 8 8 8 8 8 8 8 9 10 11 12 13 14 15 16 17 17 17 17 16 16 16 16 15 14 14 14 15 15 12 9 6 5 5 5 5 6 8 9 10 12 13 12 11 11 10 10 9 10 10 10
16 16 15 15 15 14 14 13 13 13 12 11 11 10 10 9 9 10 10 10 10 11 11 12 12 13 13 13 13 12 12 12 12 11 11 10 9 9 9 8 8 8 9 10 11 11 12 13 15 17 18 19 19 19 19 18 17 16 15 15 15 14 14 14 11 7 6 6 6 6 6 7 8 8 10 12 13 14 14 13 12 10 9 9 9 9
18 17 17 16 16 16 15 15 14 14 13 12 11 11 11 10 10 10 10 10 11 11 11 12 12 13 14 14 14 13 13 12 13 12 12 10 10 9 9 9 8 8 9 8 8 8 8 9 10 12 16 17 18 18 18 19 17 15 14 15 15 14 13 12 10 7 6 7 7 7 8 8 8 8 9 11 12 14 14 15 13 11 10 9 9 9
Wind_Direction
198 198 199 200 198 196 197 203 205 206 209 213 217 221 226 230 233 236 235 228 222 219 220 223 228 234 239 243 249 255 260 264 268 273 278 278 276 274 267 282 77 94 102 108 111 112 113 115 118 124 129 130 128 123 116 106 100 98 97 94 85 76 71 68 61 51 40 7 313 308 316 304 291 245 204 192 205 303 338 291 250 241 257 310 341 354
193 193 192 195 196 195 194 198 202 205 208 211 215 220 226 230 232 235 238 233 227 222 222 225 230 235 242 248 254 262 267 270 272 273 273 268 262 249 210 156 114 105 107 108 110 109 107 105 110 119 127 127 122 110 8 337 318 280 200 161 125 80 59 39 21 358 335 307 281 272 277 280 265 240 227 216 220 270 331 301 264 253 260 284 304 315
181 182 184 189 193 194 193 193 197 202 206 209 214 220 226 229 229 228 227 226 223 221 220 224 229 236 242 247 252 258 262 264 265 264 258 244 204 164 156 138 121 113 113 113 112 110 106 101 99 96 79 11 338 324 318 310 304 295 281 270 266 266 266 268 270 271 268 272 267 260 259 262 256 247 242 240 241 259 296 287 270 263 269 280 291 298
176 175 178 183 188 193 195 194 194 198 203 207 213 220 226 224 222 219 216 211 209 211 215 220 227 234 239 240 237 235 240 241 240 228 190 145 136 141 144 135 126 122 121 120 117 116 116 115 106 80 20 347 336 329 325 320 315 309 300 290 280 275 271 268 268 268 268 267 264 259 256 255 255 254 254 254 256 261 270 272 270 269 272 276 282 288
176 176 177 178 182 188 195 196 196 197 202 206 210 212 212 210 209 208 205 198 194 198 207 214 221 224 223 213 192 173 167 182 176 152 132 122 122 128 131 129 129 129 130 132 134 137 140 146 154 310 327 329 329 325 324 321 319 317 314 306 297 287 280 276 274 273 272 270 267 263 259 256 255 256 258 254 253 256 264 269 271 272 273 274 276 279
177 177 177 176 178 183 189 192 194 197 200 203 201 195 191 194 198 199 197 190 186 188 198 206 210 207 198 185 170 160 155 159 157 148 136 125 119 119 122 127 132 136 139 143 151 158 163 179 234 289 306 315 317 317 316 315 315 314 312 306 299 292 289 287 285 284 281 277 273 267 261 257 254 253 254 252 252 253 259 266 271 274 276 277 277 279
175 176 176 176 179 182 184 185 190 197 199 196 189 182 180 185 191 194 194 191 187 187 194 202 204 197 187 181 177 176 175 173 171 165 158 149 140 132 128 131 137 144 150 157 166 177 196 234 272 291 300 307 310 311 312 310 308 303 295 288 284 285 288 292 294 294 292 287 282 275 267 259 254 251 251 251 251 251 254 260 266 271 275 279 282 284
170 174 177 178 180 181 181 181 187 196 203 198 187 179 178 182 188 192 195 194 191 191 195 201 203 199 191 187 187 190 189 187 185 184 182 177 171 164 158 157 159 163 169 176 193 214 242 267 283 291 296 300 303 302 300 296 289 280 273 271 275 280 287 293 297 298 297 294 289 283 274 265 257 253 251 250 250 250 251 253 258 264 271 276 280 283
168 171 178 182 180 176 176 180 186 195 205 204 191 181 179 182 187 191 194 195 196 197 199 200 200 199 196 193 191 192 192 192 193 197 202 203 202 200 197 196 195 195 197 202 218 243 266 277 280 281 283 278 279 279 277 274 271 268 269 272 277 283 289 295 298 300 300 299 296 290 282 273 265 258 253 251 250 249 249 250 253 257 263 269 276 281
172 173 176 180 182 179 176 178 184 191 199 201 193 185 182 183 186 189 191 192 195 197 199 200 198 195 196 196 196 197 199 205 211 219 225 228 229 228 228 227 226 227 227 230 235 245 255 260 257 254 255 256 261 267 272 273 274 275 276 279 282 287 291 296 299 300 301 302 302 299 294 286 276 267 259 254 252 251 250 250 250 252 256 262 269 276
173 174 174 176 180 183 182 181 183 187 192 191 187 184 184 186 187 188 188 189 191 193 195 197 197 196 196 199 203 207 211 219 230 241 248 253 252 251 248 247 247 248 249 250 252 251 247 245 246 249 254 260 267 274 278 280 281 281 281 282 284 288 292 297 299 300 300 302 303 303 303 298 290 281 272 265 260 256 253 251 250 249 250 254 259 265
170 174 175 176 178 181 184 185 186 186 186 183 180 179 184 188 192 192 189 188 188 189 191 193 196 198 200 203 208 215 221 228 237 246 256 261 263 262 261 260 260 260 262 263 264 262 258 256 256 259 265 271 276 281 284 285 285 283 281 281 283 288 293 297 300 300 298 298 299 302 307 306 302 295 289 281 274 267 261 257 254 252 251 251 255 261
172 174 176 177 178 180 182 183 183 183 183 182 181 181 183 187 191 192 190 190 189 188 190 191 194 198 203 208 213 218 224 231 240 248 254 258 260 262 262 263 264 265 267 269 270 269 267 266 266 269 273 278 282 285 287 288 286 282 278 279 283 289 295 299 300 301 299 298 296 299 303 305 302 298 294 288 283 278 273 267 264 260 258 258 261 265
169 171 172 174 178 181 184 183 180 179 182 185 187 188 187 187 188 189 187 187 188 189 190 191 194 198 203 209 215 221 226 232 239 247 252 255 257 259 260 261 264 266 269 271 272 272 271 269 269 272 276 279 283 286 288 287 283 279 275 279 285 292 297 300 302 302 302 299 295 290 284 284 286 287 286 285 281 279 278 277 272 269 268 269 271 274
168 169 169 173 177 182 185 186 183 181 183 186 190 192 191 189 188 188 185 183 185 187 189 192 196 201 207 213 218 224 229 233 238 244 249 253 258 260 260 261 263 267 270 273 274 273 271 269 268 270 274 279 283 287 287 286 283 280 278 282 285 289 292 296 299 300 301 297 292 282 268 265 267 274 277 279 281 282 284 281 276 273 273 273 279 284
172 172 172 175 178 181 186 188 187 184 184 186 190 192 193 191 190 190 188 185 184 185 185 187 193 205 218 223 226 229 232 236 240 243 247 253 259 263 263 263 265 269 273 275 275 272 269 267 266 267 271 277 282 283 283 284 284 281 277 278 280 283 287 290 293 295 294 291 285 273 262 259 260 262 266 271 278 283 286 285 282 276 271 269 273 281
175 176 177 177 179 182 186 188 187 185 185 186 189 192 194 193 192 191 189 188 186 185 186 188 192 204 222 229 233 234 234 235 241 246 247 251 259 265 267 268 270 274 277 278 275 269 263 259 259 261 266 271 272 270 267 268 272 274 276 277 280 282 284 287 288 287 284 280 274 266 261 259 257 255 257 263 272 279 282 285 286 283 276 267 264 265
178 180 181 180 180 183 185 185 186 187 188 188 189 192 194 195 193 192 191 191 189 187 190 193 196 201 207 206 225 235 235 232 238 246 249 249 256 264 269 271 274 276 277 276 271 261 251 247 249 253 258 260 252 242 240 251 265 273 279 280 280 280 280 281 282 284 284 276 267 262 262 261 259 256 255 259 267 275 280 281 283 282 278 273 268 266
182 185 186 185 185 185 186 185 186 188 190 191 192 191 190 191 192 193 193 193 192 191 194 199 204 209 212 201 218 233 238 233 237 245 253 254 258 264 270 273 274 273 271 266 258 247 240 240 242 246 249 248 238 228 232 245 258 269 279 281 280 276 272 275 281 285 285 274 264 263 268 266 263 259 259 258 260 267 275 278 279 279 276 273 272 271
188 192 194 193 190 188 187 189 192 194 195 197 196 193 188 188 190 192 194 196 197 199 202 204 210 219 225 225 229 236 240 238 240 249 261 265 267 269 270 270 265 259 255 250 245 241 239 240 243 245 245 244 238 233 233 239 249 260 271 275 271 267 271 278 285 288 281 250 222 250 268 266 264 259 256 256 259 262 265 271 274 275 274 271 269 269
197 198 203 204 200 195 193 195 197 199 200 200 197 193 190 189 190 193 198 202 205 208 213 214 216 221 226 225 226 233 243 243 247 256 270 275 275 272 267 258 245 235 230 234 244 247 245 247 249 251 252 252 248 244 239 236 237 244 254 257 258 265 275 286 293 291 269 215 195 230 268 265 266 265 264 263 264 264 263 262 261 262 266 267 266 266
209 207 206 208 209 209 206 202 199 198 199 200 197 194 193 194 195 199 205 210 213 216 217 216 215 217 222 223 230 240 252 255 258 264 274 276 274 270 259 240 225 220 220 228 245 255 256 259 263 265 264 262 259 256 250 238 228 227 235 242 254 267 284 302 315 314 255 193 196 248 272 272 273 274 273 273 271 268 266 263 255 253 257 259 262 264
218 213 207 205 206 209 208 202 195 192 193 197 199 200 202 205 207 210 215 217 216 215 214 214 217 223 228 232 240 250 259 261 262 263 266 264 259 252 244 229 224 228 237 244 254 262 270 278 280 276 271 269 268 266 259 239 220 211 223 236 251 271 298 330 356 11 26 77 279 283 282 280 280 279 278 277 275 274 272 266 258 253 251 252 253 255
198 203 200 197 194 193 194 192 189 186 185 188 192 196 199 204 206 207 208 208 208 209 212 218 224 229 236 242 250 256 260 259 256 251 245 251 256 252 239 238 241 245 253 259 266 273 281 287 283 277 273 272 272 270 259 228 205 199 214 229 246 271 312 337 345 346 341 316 296 289 288 287 285 284 282 281 280 278 276 272 265 258 254 254 252 249
176 181 182 181 178 176 177 182 184 184 184 184 185 187 188 190 191 191 191 196 202 209 215 220 224 231 244 251 257 259 257 252 245 238 233 241 255 260 254 257 257 257 258 263 270 278 285 288 283 276 273 272 272 264 240 202 186 187 204 217 232 251 282 298 304 304 301 294 289 285 284 284 285 287 287 287 286 285 283 280 275 271 267 264 260 254
163 164 165 166 163 162 163 170 177 182 185 187 189 192 194 196 197 198 200 203 207 212 215 218 223 235 249 252 248 246 246 241 234 230 229 237 254 266 264 266 265 263 265 269 278 287 293 293 287 279 275 270 258 224 185 167 165 176 192 203 215 230 244 256 269 281 287 288 285 283 281 281 284 286 290 291 292 291 290 288 283 278 273 268 263 256
148 150 151 152 152 153 158 165 173 179 184 189 194 199 203 205 205 203 202 206 213 216 215 210 215 228 241 244 235 225 226 227 227 228 235 242 252 262 265 268 268 269 273 281 288 296 300 298 292 283 275 253 213 184 171 165 169 180 193 208 224 241 255 261 265 270 279 286 287 284 281 278 278 280 283 285 286 288 290 290 289 284 279 272 263 255
126 128 129 129 133 141 152 162 170 177 184 188 194 201 209 213 212 208 207 215 219 217 212 209 212 219 224 229 238 237 232 233 232 232 237 240 246 255 258 264 269 274 280 291 297 299 300 295 289 278 254 216 194 186 181 182 186 194 209 230 256 274 282 283 278 271 268 273 278 280 277 274 273 275 277 279 280 281 283 285 287 285 280 271 262 255
113 112 115 119 127 138 146 151 157 166 178 188 195 201 210 216 215 213 215 218 215 209 206 209 214 222 233 258 267 263 252 245 238 234 235 234 239 249 254 258 264 272 284 297 302 300 294 285 272 248 218 201 194 192 193 196 201 211 230 259 282 293 296 293 285 274 260 251 249 253 257 262 266 270 273 275 277 277 278 278 278 278 274 265 259 254
128 131 136 141 146 151 151 148 147 149 153 165 184 200 209 211 206 201 204 211 210 206 206 215 224 234 247 266 276 274 263 244 233 229 229 224 229 242 251 251 255 266 283 302 307 301 286 260 237 219 208 202 200 200 202 206 212 225 248 275 292 297 297 293 285 275 264 253 248 245 246 250 256 261 266 268 272 276 278 277 275 272 269 265 260 257
150 155 158 160 162 162 160 158 155 155 156 161 174 192 204 207 204 201 207 218 224 225 226 233 241 247 251 246 244 277 283 236 210 211 215 212 218 234 242 248 253 263 280 294 316 320 292 241 216 212 211 210 210 210 211 215 222 237 260 281 292 296 294 289 283 276 270 265 260 257 256 256 258 261 264 268 273 278 281 279 275 270 267 265 263 262
170 173 173 173 174 174 173 172 171 170 171 175 182 191 200 207 213 220 228 238 246 252 254 255 258 260 258 246 238 251 294 197 177 190 200 202 214 233 240 252 258 266 276 280 286 283 244 292 234 219 222 222 222 223 225 228 236 251 269 283 290 292 288 283 277 274 272 271 270 269 268 268 268 269 271 273 277 281 283 279 272 265 264 265 265 264
186 188 189 189 188 188 188 188 188 188 190 193 198 204 212 217 223 230 239 249 257 262 264 265 265 264 263 257 255 256 262 248 234 230 230 230 237 246 250 255 257 262 269 273 270 264 260 281 272 247 239 236 235 236 238 243 251 261 273 283 287 286 280 275 273 273 275 276 276 275 274 274 274 274 275 277 279 281 281 276 267 259 262 265 268 270
193 195 197 198 198 198 199 200 200 202 204 208 213 221 228 235 239 244 248 254 259 263 264 265 264 264 263 261 263 266 268 260 258 259 260 257 255 254 255 253 252 254 258 260 260 258 259 262 265 266 260 250 245 244 247 252 259 267 274 279 281 279 275 273 276 279 281 282 281 280 279 277 277 276 276 277 277 277 276 270 260 254 258 261 265 268
197 200 201 203 204 206 207 209 212 214 216 219 225 231 238 244 250 254 256 257 257 257 257 258 260 262 264 263 265 272 281 274 269 269 268 265 260 255 253 248 245 245 245 245 245 248 252 255 256 259 266 266 262 259 258 260 265 270 275 277 278 278 279 283 286 289 289 288 287 285 283 281 278 276 275 274 272 270 266 257 248 243 244 247 252 257
202 204 207 209 212 216 220 226 231 234 237 239 241 244 248 252 255 257 258 255 251 248 246 248 252 257 261 264 267 273 283 284 279 275 273 269 261 253 245 241 240 239 236 237 238 243 251 257 257 256 260 268 275 275 271 270 271 274 277 279 281 283 286 290 293 294 293 292 290 288 285 280 275 271 268 266 263 260 256 249 243 238 235 234 238 245
208 210 213 218 221 226 231 238 243 247 250 252 254 255 257 257 257 256 253 248 243 239 238 241 246 252 258 264 267 269 272 273 273 274 273 270 263 255 245 243 243 242 239 239 241 245 252 261 265 265 263 261 264 271 277 279 280 280 280 281 283 287 290 293 294 294 294 292 289 286 280 272 264 258 256 256 255 255 254 252 250 247 243 238 234 234
213 215 218 222 226 231 236 240 244 247 249 250 252 254 256 255 252 248 243 238 236 236 238 243 247 252 257 263 267 269 270 268 268 269 270 269 266 261 254 251 251 250 250 249 250 251 254 260 265 268 267 264 263 266 273 280 282 283 284 285 287 289 292 295 295 295 293 290 286 280 271 260 252 249 247 249 250 251 251 252 253 254 253 251 247 242
214 215 215 217 221 224 228 231 234 237 238 237 238 238 238 237 235 232 231 231 234 238 242 248 251 254 258 261 265 268 269 269 267 267 266 266 265 264 261 259 257 258 259 258 258 257 256 256 257 260 266 270 271 271 274 277 280 283 287 290 291 292 293 296 297 296 293 287 280 270 257 248 244 243 243 245 248 249 250 251 251 253 254 256 255 253
210 207 202 197 198 203 207 212 218 221 221 219 219 220 219 219 220 223 226 231 237 243 248 253 257 261 263 265 266 268 268 268 267 266 264 263 263 263 263 262 262 263 264 264 263 261 259 257 256 258 260 265 270 273 275 275 278 283 289 293 294 295 297 298 297 294 288 279 267 253 243 239 240 242 244 246 249 250 251 251 251 251 252 253 254 254
198 189 179 175 177 184 190 202 212 218 220 220 220 220 219 221 222 226 231 236 242 248 255 260 264 267 269 269 269 269 269 268 266 264 262 261 260 261 261 261 262 264 265 265 264 263 263 261 260 260 261 263 268 271 272 274 277 282 286 288 291 295 299 299 297 290 278 262 248 239 236 239 242 245 247 248 248 250 251 251 251 251 252 253 254 255
190 180 171 169 172 181 196 210 221 227 231 233 234 234 236 237 239 241 244 247 252 257 262 269 274 277 277 275 273 271 270 267 265 263 260 259 257 257 257 257 258 260 262 264 264 264 264 264 264 264 264 266 268 270 272 275 279 281 282 284 290 296 300 299 294 281 260 245 239 239 243 249 253 255 253 250 248 248 250 250 250 250 250 251 252 254
197 189 181 183 190 200 210 219 226 233 241 247 251 254 257 257 257 258 258 260 263 267 274 281 285 287 287 284 280 276 272 268 265 263 260 258 256 255 254 253 254 255 258 261 264 266 266 267 267 268 270 272 270 269 270 275 278 281 281 284 288 292 292 289 284 276 267 261 259 258 260 263 265 262 257 253 249 247 246 246 246 246 247 248 249 252
227 219 211 209 211 215 221 226 233 241 251 258 264 268 269 268 267 266 265 266 268 272 278 284 289 291 291 289 288 285 278 271 266 263 260 257 255 252 250 249 250 251 254 258 262 266 270 270 271 272 274 276 272 268 268 270 274 278 281 284 283 278 273 278 283 283 279 274 269 266 267 269 268 264 260 257 252 247 243 241 241 241 242 244 246 247
257 251 242 234 230 230 234 238 244 252 259 264 268 271 271 269 270 269 267 268 270 273 276 282 286 287 286 287 291 292 289 282 273 264 258 253 250 248 246 246 247 250 255 259 264 267 269 270 273 276 278 276 272 266 263 264 268 273 278 281 282 280 280 284 287 288 286 282 277 271 269 269 270 269 267 260 252 245 241 238 237 237 238 240 243 245
263 263 261 257 252 250 251 253 256 258 261 264 267 269 270 270 270 269 268 268 270 272 273 276 277 276 275 280 287 290 291 289 284 276 264 254 247 245 246 248 252 257 261 264 266 267 268 269 272 274 275 271 267 263 261 262 264 268 274 278 280 283 285 287 289 291 291 289 283 277 273 271 272 274 274 266 254 244 237 234 234 235 236 238 242 245
264 266 267 267 266 266 265 264 264 264 265 266 268 270 270 270 270 270 269 268 268 269 270 271 272 272 273 277 282 285 285 286 285 282 276 269 262 257 256 258 262 266 268 268 267 265 264 264 265 265 263 259 257 258 260 262 263 264 269 275 279 281 282 284 288 293 295 291 287 286 282 280 281 284 284 277 264 250 238 232 231 233 236 240 244 249
264 266 267 269 270 271 270 270 269 269 269 270 271 271 271 271 271 270 269 268 268 267 267 268 269 271 274 277 280 282 284 286 286 284 280 276 271 268 267 269 270 272 272 270 267 264 261 258 257 255 253 251 250 253 258 260 261 263 266 271 274 275 277 282 288 294 292 287 285 287 290 292 294 295 295 290 281 266 249 237 233 234 239 244 250 254
264 265 267 269 270 270 271 271 272 272 272 273 273 273 272 272 272 272 271 269 267 265 265 266 267 269 272 275 278 281 283 285 286 285 284 281 277 274 273 273 274 275 275 273 270 266 262 259 256 252 251 251 250 251 255 258 259 261 264 265 267 269 273 279 287 293 294 290 289 289 291 293 295 296 296 294 291 283 268 254 244 241 243 249 255 258
263 265 267 267 268 269 270 271 271 271 272 273 273 273 273 272 270 270 269 268 265 263 263 264 265 266 267 271 275 278 280 281 282 282 283 282 282 281 280 279 279 278 278 277 277 276 274 272 267 261 256 254 252 252 252 254 257 259 260 260 262 265 270 278 285 293 296 298 298 296 295 295 297 297 295 293 292 290 285 275 265 256 253 256 260 263
261 264 266 266 266 267 268 268 269 269 270 270 271 272 271 270 268 267 266 265 264 262 262 262 263 263 264 267 270 273 275 276 276 277 278 280 280 280 279 279 277 275 274 276 281 287 289 287 282 276 269 261 256 253 251 251 252 253 254 256 260 264 269 276 285 294 302 306 305 303 300 298 297 298 296 294 292 292 292 289 283 275 270 269 270 271